Weather History for Lee's Summit, MO

Change the Weather History Date:

Sunday, October 20, 2013

  Actual Average (KMKC) Record (KMKC)
Temperature  
Mean Temperature 58 °F -  
Max Temperature 70 °F 64 °F 87 °F (2003)
Min Temperature 46 °F 46 °F 34 °F (2002)
Degree Days  
Heating Degree Days 8    
Growing Degree Days 8 (Base 50)    
Moisture  
Dew Point 39 °F    
Average Humidity 55    
Maximum Humidity 71    
Minimum Humidity 30    
Precipitation  
Precipitation 0.00 in - - ()
Sea Level Pressure  
Sea Level Pressure 29.86 in    
Wind  
Wind Speed 10 mph (SW)    
Max Wind Speed 20 mph    
Max Gust Speed 26 mph    
Visibility 10 miles    
Events      
Averages and records for this station are not official NWS values.
T = Trace of Precipitation, MM = Missing Value Source: NWS Daily Summary

Daily Weather History Graph

Daily Weather History Graph

Search for Another Location

Airport:

Trip Planner

Search our weather history database for the weather conditions in past years. The results will help you decide how hot, cold, wet, or windy it might be!

Date:

Astronomy

Oct. 20, 2013 Rise Set
Actual Time 7:32 AM CDT 6:31 PM CDT
Civil Twilight 7:05 AM CDT 6:58 PM CDT
Nautical Twilight 6:34 AM CDT 7:29 PM CDT
Astronomical Twilight 6:03 AM CDT 8:00 PM CDT
Moon 7:41 PM CDT (10/20) 9:09 AM CDT (10/20)
Length of Visible Light 11h 53m
Length of Day
10h 59m
Full, 97% of the Moon is Illuminated
Oct 20
Full
Oct 26
Last Quarter
Nov 3
New
Nov 9
First Quarter
Nov 17
Full

Hourly Weather History & Observations

Time (CDT) Temp. Windchill Dew Point Humidity Pressure Visibility Wind Dir Wind Speed Gust Speed Precip Events Conditions
12:53 AM 50.0 °F - 37.9 °F 63% 29.90 in 10.0 mi SSW 9.2 mph - N/A   Clear
1:53 AM 48.9 °F - 37.9 °F 66% 29.89 in 10.0 mi SSW 8.1 mph - N/A   Clear
2:53 AM 48.0 °F - 37.9 °F 68% 29.88 in 10.0 mi SSW 10.4 mph - N/A   Clear
3:53 AM 46.9 °F - 37.9 °F 71% 29.86 in 10.0 mi SSW 9.2 mph - N/A   Clear
4:53 AM 46.9 °F - 37.9 °F 71% 29.86 in 10.0 mi SW 12.7 mph - N/A   Clear
5:53 AM 46.0 °F 40.6 °F 37.0 °F 71% 29.85 in 10.0 mi SW 11.5 mph - N/A   Clear
6:53 AM 46.0 °F 41.0 °F 37.0 °F 71% 29.86 in 10.0 mi SSW 10.4 mph - N/A   Clear
7:53 AM 46.0 °F 41.0 °F 37.0 °F 71% 29.86 in 10.0 mi SSW 10.4 mph - N/A   Clear
8:53 AM 48.9 °F - 37.9 °F 66% 29.87 in 10.0 mi SW 12.7 mph 20.7 mph N/A   Clear
9:53 AM 54.0 °F - 37.9 °F 55% 29.87 in 10.0 mi SW 15.0 mph - N/A   Clear
10:53 AM 57.9 °F - 37.9 °F 47% 29.87 in 10.0 mi SW 15.0 mph - N/A   Clear
11:53 AM 63.0 °F - 39.0 °F 41% 29.86 in 10.0 mi SW 17.3 mph 21.9 mph N/A   Clear
12:53 PM 66.0 °F - 39.0 °F 37% 29.84 in 10.0 mi SSW 13.8 mph 23.0 mph N/A   Clear
1:53 PM 69.1 °F - 39.0 °F 33% 29.82 in 10.0 mi SSW 12.7 mph 23.0 mph N/A   Clear
2:53 PM 69.1 °F - 36.0 °F 30% 29.81 in 10.0 mi SW 19.6 mph 25.3 mph N/A   Clear
3:53 PM 69.1 °F - 37.0 °F 31% 29.80 in 10.0 mi SW 15.0 mph 26.5 mph N/A   Clear
4:53 PM 68.0 °F - 39.9 °F 36% 29.81 in 10.0 mi SW 15.0 mph 21.9 mph N/A   Clear
5:53 PM 66.0 °F - 41.0 °F 40% 29.82 in 10.0 mi SSW 11.5 mph - N/A   Clear
6:53 PM 62.1 °F - 41.0 °F 46% 29.84 in 10.0 mi SSW 5.8 mph - N/A   Clear
7:53 PM 60.1 °F - 42.1 °F 51% 29.87 in 10.0 mi West 5.8 mph - N/A   Clear
8:53 PM 55.9 °F - 43.0 °F 62% 29.89 in 10.0 mi WNW 4.6 mph - N/A   Partly Cloudy
9:53 PM 57.0 °F - 43.0 °F 59% 29.91 in 10.0 mi Calm Calm - N/A   Clear
10:53 PM 55.9 °F - 42.1 °F 60% 29.93 in 10.0 mi Calm Calm - N/A   Overcast
11:53 PM 54.0 °F - 43.0 °F 66% 29.93 in 10.0 mi NW 3.5 mph - N/A   Overcast